Regional Weather Roundup
Issued by NWS

Home | Current Version | Previous Version | Graphics & Text | Print | Product List | Glossary On
Versions: 1 2 3 4 5 6 7 8 9 10 11 12 13 14 15 16 17 18 19 20 21 22 23 24 25 26 27 28 29 30 31 32 33 34 35 36 37 38 39 40 41 42 43 44 45 46 47 48 49 50
000
ASUS43 KDMX 180301
RWRIA

WEATHER ROUNDUP FOR IOWA
NATIONAL WEATHER SERVICE DES MOINES IA
1000 PM CDT TUE OCT 17 2017

NOTE: "FAIR" INDICATES FEW OR NO CLOUDS BELOW 12,000 FEET WITH NO
SIGNIFICANT WEATHER AND/OR OBSTRUCTIONS TO VISIBILITY.

* - THESE STATIONS ARE NOT NWS STATIONS...THUS NOT UNDER NWS
QUALITY CONTROL.  THEY ALSO DO NOT REPORT WEATHER SUCH
AS PRECIPITATION OR FOG.

IAZ001>003-012>014-020>022-031>034-043>046-180400-
   NORTHWEST IOWA

CITY           SKY/WX    TMP DP  RH WIND       PRES   REMARKS
CARROLL *      CLEAR     55  52  88 S5        30.00S
CHEROKEE *     CLEAR     50  46  85 SE5       29.97S
DENISON *      CLEAR     57  45  62 VRB6      30.01S
LE MARS *      CLEAR     54  45  71 S7        29.95S
ORANGE CITY *  CLEAR     57  48  72 S5        29.95F
SHELDON *      CLEAR     57  45  62 S6        29.94S
SIOUX CITY     CLEAR     50  45  83 SE6       29.96S
SPENCER        CLEAR     54  45  71 S8        29.97R
STORM LAKE *   CLEAR     54  45  71 S9        29.98F
$$

IAZ055>058-069>071-079>083-090>094-180400-
   SOUTHWEST IOWA

CITY           SKY/WX    TMP DP  RH WIND       PRES   REMARKS
ATLANTIC *     CLEAR     50  46  87 CALM      30.02S
AUDUBON *      CLEAR     45  41  87 CALM      30.03S
CLARINDA *     CLEAR     54  46  76 S6        30.06R
COUNCIL BLFS * CLEAR     57  48  72 SE7       30.00S
CRESTON *      CLEAR     55  46  71 S10       30.06S
HARLAN  *      CLEAR     48  45  87 S3        30.04S
LAMONI         CLEAR     57  46  66 S10       30.07S
RED OAK *      CLEAR     54  45  71 S6        30.03R
SHENANDOAH *   CLEAR     59  46  63 S12       30.03R
$$

IAZ047>049-059>061-072>074-084-180400-
   CENTRAL IOWA

CITY           SKY/WX    TMP DP  RH WIND       PRES   REMARKS
AMES           CLEAR     53  47  79 S7        30.03S
ANKENY *       CLEAR     57  46  67 S5        30.06R
BOONE *        CLEAR     54  45  71 S8        30.02S
CHARITON *     CLEAR     55  45  67 S9        30.07S
DES MOINES     CLEAR     57  46  66 S9        30.05R
GRINNELL*      CLEAR     58  44  59 S10       30.08S
KNOXVILLE *    CLEAR     57  45  62 S8        30.05S
MARSHALLTOWN   CLEAR     57  46  66 S9        30.04S
NEWTON *       CLEAR     55  45  67 S9        30.06S
PELLA *        CLEAR     56  45  65 S8        30.08S
PERRY *          N/A     53  43  69 S6        30.03S
$$

IAZ004>006-015-016-023>025-035-036-180400-
   NORTH CENTRAL IOWA

CITY           SKY/WX    TMP DP  RH WIND       PRES   REMARKS
ALGONA *       CLEAR     54  45  71 S9        29.98S
CLARION *      CLEAR     55  46  71 S14       30.00S
ESTHERVILLE    CLEAR     51  45  79 S8        29.96S
FORT DODGE *   CLEAR     57  45  64 S8        30.00S
MASON CITY     CLEAR     49  42  77 S7        30.01S
FOREST CITY *    N/A     52  45  76 S7        29.99S
WEBSTER CITY * CLEAR     54  45  71 S8        30.00R
IOWA FALLS *     N/A     55  46  71 S8        30.04R
$$

IAZ007>011-017>019-026>030-037>042-050>054-066-180400-
   NORTHEAST IOWA

CITY           SKY/WX    TMP DP  RH WIND       PRES   REMARKS
CEDAR RAPIDS   CLEAR     55  43  63 S9        30.08R
CHARLES CITY * CLEAR     57  45  62 S8        30.03R
CLINTON *      CLEAR     53  43  68 S8        30.11S
DECORAH *      CLEAR     59  45  58 S9G15     30.02S
DUBUQUE        CLEAR     53  43  68 SW12      30.08R
MONTICELLO *   CLEAR     54  43  66 S6        30.08S
OELWEIN *      CLEAR     54  46  76 S9        30.05S
WATERLOO       CLEAR     57  44  62 S12       30.03S
$$

IAZ064-065-067-068-078-180400-
   EAST CENTRAL IOWA

CITY           SKY/WX    TMP DP  RH WIND       PRES   REMARKS
DAVENPORT      CLEAR     57  42  57 S9        30.13S
IOWA CITY      CLEAR     57  43  59 S9        30.11R
MUSCATINE *    CLEAR     55  43  62 S9        30.11S
QUAD CITIES    CLEAR     58  41  53 S7        30.11R
$$

IAZ062-063-075>077-085>089-095>099-180400-
   SOUTHEAST IOWA

CITY           SKY/WX    TMP DP  RH WIND       PRES   REMARKS
BURLINGTON     CLEAR     57  44  62 S8        30.13R
FAIRFIELD *    CLEAR     55  43  62 S8        30.10S
FORT MADISON * CLEAR     55  45  67 S7        30.14S
KEOKUK *       CLEAR     59  43  55 S8        30.13R
OSKALOOSA *      N/A     49  44  81 S8        30.09S
OTTUMWA        CLEAR     55  44  66 S8        30.09S
WASHINGTON *   CLEAR     55  45  67 S9        30.12R
$$

ABBREVIATIONS USED IN REMARKS
   TC - TEMPERATURES IN CELSIUS
  WCI - WIND CHILL INDEX
   HX - HEAT INDEX
  VSB - VISIBILITY
$$





USA.gov is the U.S. government's official web portal to all federal, state and local government web resources and services.